This is the latest recevied weather packets stored in our database for station/object VK4AB-13. If no packets are shown the sender has not sent any weather packets the latest 10 day(s).
| Time | Temp. | Humidity | Pressure | Rain* | Wind** | Luminosity | Snow |
|---|---|---|---|---|---|---|---|
| 1777325999 | 14.44° C | 95% | 1022.9 hPa | 0 mm | - | 83 W/m² | - |
| 1777325942 | 14.44° C | 95% | 1022.9 hPa | 0 mm | - | 83 W/m² | - |
| 1777325642 | 14.44° C | 96% | 1022.8 hPa | 0 mm | - | 123 W/m² | - |
| 1777325342 | 13.89° C | 96% | 1022.8 hPa | 0 mm | - | 79 W/m² | - |
| 1777325042 | 13.89° C | 96% | 1022.8 hPa | 0 mm | - | 102 W/m² | - |
| 1777324742 | 13.89° C | 96% | 1022.6 hPa | 0 mm | - | 72 W/m² | - |
| 1777324442 | 13.89° C | 95% | 1022.5 hPa | 0 mm | - | 81 W/m² | - |
| 1777324142 | 13.33° C | 95% | 1022.4 hPa | 0 mm | - | 139 W/m² | - |
| 1777323842 | 13.33° C | 95% | 1022.5 hPa | 0 mm | - | 72 W/m² | - |
| 1777323542 | 13.33° C | 95% | 1022.4 hPa | 0 mm | - | 46 W/m² | - |
| 1777323242 | 13.33° C | 95% | 1022.3 hPa | 0 mm | - | 23 W/m² | - |
| 1777322942 | 13.33° C | 95% | 1022.2 hPa | 0 mm | - | 19 W/m² | - |
| 1777322642 | 13.33° C | 95% | 1022.2 hPa | 0 mm | - | 18 W/m² | - |
| 1777322342 | 13.33° C | 95% | 1022.1 hPa | 0 mm | - | 14 W/m² | - |
| 1777322042 | 13.33° C | 95% | 1022.1 hPa | 0 mm | - | 12 W/m² | - |
| 1777321742 | 13.33° C | 95% | 1021.9 hPa | 0 mm | - | 9 W/m² | - |
| 1777321442 | 13.33° C | 95% | 1021.9 hPa | 0 mm | - | 5 W/m² | - |
| 1777321142 | 13.33° C | 95% | 1021.8 hPa | 0 mm | - | 0 W/m² | - |
| 1777320842 | 13.33° C | 95% | 1021.8 hPa | 0 mm | - | 0 W/m² | - |
| 1777320542 | 13.33° C | 95% | 1021.7 hPa | 0 mm | - | 0 W/m² | - |
* Rain latest hour (hover to see other rain measurements)
** Current wind speed in m/s (hover to see current wind gust speed)